Time,TemperatureF,DewpointF,PressureIn,WindDirection,WindDirectionDegrees,WindSpeedMPH,WindSpeedGustMPH,Humidity,HourlyPrecipIn,Conditions,Clouds,dailyrainin,SoftwareType,DateUTC
2013-03-14 17:33:00,37.0,8.0,29.79,WNW,285,8.0,-999.0,29,-99.99,,,-99.99,,2013-03-14 21:33:00,
2013-03-14 17:43:00,37.0,8.0,29.79,WNW,285,8.0,-999.0,29,-99.99,,,-99.99,,2013-03-14 21:43:00,
2013-03-14 17:53:00,37.0,8.0,29.80,WNW,290,4.0,22.0,29,0.00,,,0.00,,2013-03-14 21:53:00,
2013-03-14 18:04:00,37.0,7.0,29.80,NE,40,14.0,24.0,28,0.00,,,0.00,,2013-03-14 22:04:00,
2013-03-14 18:13:00,37.0,7.0,29.80,NE,40,14.0,24.0,28,0.00,,,0.00,,2013-03-14 22:13:00,
2013-03-14 18:23:00,36.0,7.0,29.81,NNW,338,7.0,16.0,29,0.00,,,0.00,,2013-03-14 22:23:00,
2013-03-14 18:33:00,36.0,8.0,29.81,WNW,298,4.0,16.0,30,0.00,,,0.00,,2013-03-14 22:33:00,
2013-03-14 18:42:00,36.0,8.0,29.81,WNW,298,4.0,16.0,30,0.00,,,0.00,,2013-03-14 22:42:00,
2013-03-14 18:52:00,35.0,7.0,29.81,NNE,26,5.0,17.0,31,0.00,,,0.00,,2013-03-14 22:52:00,
2013-03-14 19:02:00,35.0,7.0,29.82,North,360,12.0,18.0,31,0.00,,,0.00,,2013-03-14 23:02:00,
2013-03-14 19:12:00,35.0,7.0,29.82,North,360,12.0,18.0,31,0.00,,,0.00,,2013-03-14 23:12:00,
2013-03-14 19:22:00,34.0,7.0,29.82,North,5,8.0,16.0,31,0.00,,,0.00,,2013-03-14 23:22:00,
2013-03-14 19:33:00,34.0,7.0,29.83,North,360,5.0,13.0,32,0.00,,,0.00,,2013-03-14 23:33:00,
2013-03-14 19:42:00,34.0,7.0,29.83,North,360,5.0,13.0,32,0.00,,,0.00,,2013-03-14 23:42:00,
2013-03-14 19:54:00,34.0,7.0,29.83,North,355,8.0,18.0,32,0.00,,,0.00,,2013-03-14 23:54:00,
2013-03-14 20:02:00,33.0,6.0,29.84,NNW,338,9.0,18.0,32,0.00,,,0.00,,2013-03-15 00:02:00,
2013-03-14 20:12:00,33.0,7.0,29.84,NW,321,4.0,19.0,33,0.00,,,0.00,,2013-03-15 00:12:00,
2013-03-14 20:23:00,33.0,7.0,29.84,NW,321,4.0,19.0,33,0.00,,,0.00,,2013-03-15 00:23:00,
2013-03-14 20:32:00,33.0,7.0,29.85,WNW,291,3.0,13.0,33,0.00,,,0.00,,2013-03-15 00:32:00,
2013-03-14 20:42:00,33.0,7.0,29.85,WNW,291,3.0,13.0,33,0.00,,,0.00,,2013-03-15 00:42:00,
2013-03-14 20:52:00,32.0,7.0,29.85,NNE,28,5.0,11.0,34,0.00,,,0.00,,2013-03-15 00:52:00,
2013-03-14 21:02:00,32.0,7.0,29.85,NW,324,1.0,17.0,34,0.00,,,0.00,,2013-03-15 01:02:00,
2013-03-14 21:12:00,32.0,7.0,29.85,NW,324,1.0,17.0,34,0.00,,,0.00,,2013-03-15 01:12:00,
2013-03-14 21:22:00,32.0,7.0,29.85,West,277,1.0,14.0,35,0.00,,,0.00,,2013-03-15 01:22:00,
2013-03-14 21:32:00,32.0,8.0,29.86,NNE,32,3.0,10.0,36,0.00,,,0.00,,2013-03-15 01:32:00,
2013-03-14 21:42:00,32.0,8.0,29.86,NNE,32,3.0,10.0,36,0.00,,,0.00,,2013-03-15 01:42:00,
2013-03-14 21:52:00,31.0,8.0,29.87,WSW,256,3.0,14.0,37,0.00,,,0.00,,2013-03-15 01:52:00,
2013-03-14 22:02:00,31.0,8.0,29.86,NNW,333,6.0,12.0,37,0.00,,,0.00,,2013-03-15 02:02:00,
2013-03-14 22:12:00,31.0,8.0,29.86,NNW,333,6.0,12.0,37,0.00,,,0.00,,2013-03-15 02:12:00,
2013-03-14 22:22:00,31.0,8.0,29.87,West,281,4.0,10.0,38,0.00,,,0.00,,2013-03-15 02:22:00,
2013-03-14 22:32:00,31.0,9.0,29.87,WNW,283,4.0,10.0,39,0.00,,,0.00,,2013-03-15 02:32:00,
2013-03-14 22:42:00,31.0,9.0,29.87,WNW,283,4.0,10.0,39,0.00,,,0.00,,2013-03-15 02:42:00,
2013-03-14 22:52:00,30.0,8.0,29.87,North,5,5.0,18.0,39,0.00,,,0.00,,2013-03-15 02:52:00,
2013-03-14 23:02:00,30.0,9.0,29.87,NW,306,3.0,13.0,41,0.00,,,0.00,,2013-03-15 03:02:00,
2013-03-14 23:12:00,30.0,9.0,29.87,NW,306,3.0,13.0,41,0.00,,,0.00,,2013-03-15 03:12:00,
2013-03-14 23:22:00,30.0,10.0,29.88,WNW,301,6.0,15.0,42,0.00,,,0.00,,2013-03-15 03:22:00,
2013-03-14 23:33:00,30.0,11.0,29.89,WSW,253,6.0,14.0,44,0.00,,,0.00,,2013-03-15 03:33:00,
2013-03-14 23:43:00,30.0,11.0,29.89,WSW,253,6.0,14.0,44,0.00,,,0.00,,2013-03-15 03:43:00,
2013-03-14 23:53:00,30.0,11.0,29.89,NNW,333,4.0,12.0,45,0.00,,,0.00,,2013-03-15 03:53:00,